DW6352 Weather Reports


Display with metric or nautical units.
time (UTC)temp
F
wind
direction
speed
MPH
gust
MPH
rain 1hr
in
rain 24hr
in
rain mn
in
humidity
%
barometer
mb
20200814101009 69 26 7.0 18.0 0.00 0.00 0.00 77 1018.0
20200814100509 69 26 8.0 16.0 0.00 0.00 0.00 77 1017.8
20200814100009 69 21 8.0 16.0 0.00 0.00 0.00 77 1017.7
20200814095511 70 18 6.0 16.0 0.00 0.00 0.00 83 1017.7
20200814095009 71 25 3.0 10.0 0.00 0.00 0.00 91 1017.6
20200814094511 71 40 1.0 4.0 0.00 0.00 0.00 91 1017.4
20200814094010 71 93 1.0 3.0 0.00 0.00 0.00 91 1017.2
20200814093511 71 93 1.0 3.0 0.00 0.00 0.00 91 1017.1
20200814093013 72 96 1.0 3.0 0.00 0.00 0.00 91 1017.1
20200814092509 72 98 1.0 3.0 0.00 0.00 0.00 91 1017.0
20200814092009 72 96 1.0 2.0 0.00 0.00 0.00 91 1017.0
20200814091510 72 101 1.0 3.0 0.00 0.00 0.00 91 1017.0
20200814091010 72 114 1.0 3.0 0.00 0.00 0.00 91 1017.0
20200814090510 72 120 1.0 3.0 0.00 0.00 0.00 91 1016.9
20200814090010 72 124 2.0 4.0 0.00 0.00 0.00 91 1016.9
20200814085510 72 123 2.0 4.0 0.00 0.00 0.00 91 1016.9
20200814085010 72 131 2.0 4.0 0.00 0.00 0.00 91 1016.9
20200814084509 72 136 2.0 4.0 0.00 0.00 0.00 91 1016.8
20200814084015 72 137 1.0 4.0 0.00 0.00 0.00 91 1016.5
20200814083512 72 144 1.0 4.0 0.00 0.00 0.00 90 1016.7
20200814083009 72 147 1.0 4.0 0.00 0.00 0.00 90 1016.7
20200814082509 72 139 2.0 6.0 0.00 0.00 0.00 90 1016.8
20200814082010 72 141 2.0 6.0 0.00 0.00 0.00 90 1016.7
20200814081515 72 153 2.0 5.0 0.00 0.00 0.00 90 1016.7
20200814081010 72 150 2.0 5.0 0.00 0.00 0.00 90 1016.5
20200814080509 72 144 2.0 5.0 0.00 0.00 0.00 90 1016.5
20200814080009 72 147 2.0 5.0 0.00 0.00 0.00 90 1016.5
20200814075509 72 150 2.0 5.0 0.00 0.00 0.00 90 1016.3
20200814075009 73 153 2.0 5.0 0.00 0.00 0.00 90 1016.3
20200814074511 73 150 2.0 8.0 0.00 0.00 0.00 90 1016.3
20200814074009 73 150 2.0 8.0 0.00 0.00 0.00 90 1016.4
20200814073509 73 157 2.0 5.0 0.00 0.00 0.00 90 1016.4
20200814073010 73 154 2.0 7.0 0.00 0.00 0.00 90 1016.5
20200814072510 73 148 2.0 7.0 0.00 0.00 0.00 90 1016.6
20200814072020 73 150 2.0 5.0 0.00 0.00 0.00 90 1016.5
20200814071513 73 153 2.0 5.0 0.00 0.00 0.00 90 1016.5
20200814071010 73 151 2.0 5.0 0.00 0.00 0.00 90 1016.4
20200814070510 73 155 2.0 5.0 0.00 0.00 0.00 89 1016.4
20200814070011 73 156 2.0 5.0 0.00 0.00 0.00 89 1016.4
20200814065510 74 152 2.0 4.0 0.00 0.00 0.00 89 1016.5
20200814065010 74 155 2.0 4.0 0.00 0.00 0.00 89 1016.6
20200814064511 74 158 2.0 5.0 0.00 0.00 0.00 89 1016.6
20200814064011 74 157 2.0 6.0 0.00 0.00 0.00 89 1016.5
20200814063514 74 159 1.0 6.0 0.00 0.00 0.00 89 1016.4
20200814063010 74 160 2.0 5.0 0.00 0.00 0.00 89 1016.2
20200814062510 74 153 3.0 8.0 0.00 0.00 0.00 89 1016.1
20200814062010 74 154 3.0 8.0 0.00 0.00 0.00 89 1015.9
20200814061509 74 160 3.0 7.0 0.00 0.00 0.00 89 1015.9
20200814061009 74 157 3.0 10.0 0.00 0.00 0.00 89 1015.9
20200814060510 74 156 3.0 10.0 0.00 0.00 0.00 89 1015.8
20200814060017 74 158 3.0 8.0 0.00 0.00 0.00 89 1015.7
20200814055511 74 150 4.0 10.0 0.00 0.00 0.00 89 1015.5
20200814055010 74 147 4.0 10.0 0.00 0.00 0.00 89 1015.4
20200814054514 74 151 3.0 8.0 0.00 0.00 0.00 89 1015.5
20200814054010 74 148 3.0 8.0 0.00 0.00 0.00 88 1015.4
20200814053509 74 146 4.0 9.0 0.00 0.00 0.00 88 1015.5
20200814053017 74 149 3.0 9.0 0.00 0.00 0.00 88 1015.6
20200814052509 74 152 4.0 8.0 0.00 0.00 0.00 88 1015.6
20200814052010 74 153 3.0 8.0 0.00 0.00 0.00 88 1015.5
20200814051521 75 154 3.0 7.0 0.00 0.00 0.00 88 1015.4
20200814051009 75 156 4.0 9.0 0.00 0.00 0.00 88 1015.5
20200814050509 75 155 4.0 9.0 0.00 0.00 0.00 88 1015.4
20200814050017 75 146 5.0 10.0 0.00 0.00 0.00 88 1015.3
20200814045510 75 147 4.0 10.0 0.00 0.00 0.00 88 1015.2
20200814045009 75 152 4.0 10.0 0.00 0.00 0.00 88 1015.3
20200814044515 75 149 4.0 8.0 0.00 0.00 0.00 88 1015.5
20200814044009 75 145 4.0 9.0 0.00 0.00 0.00 88 1015.7
20200814043510 75 148 3.0 9.0 0.00 0.00 0.00 87 1015.8
20200814043029 75 155 3.0 7.0 0.00 0.00 0.00 87 1015.9
20200814042510 75 154 3.0 8.0 0.00 0.00 0.00 87 1015.9
20200814042009 75 151 3.0 11.0 0.00 0.00 0.00 87 1015.9
20200814041510 75 148 3.0 11.0 0.00 0.00 0.00 87 1015.8
20200814041010 75 150 3.0 7.0 0.00 0.00 0.00 87 1015.7
20200814040509 75 145 3.0 8.0 0.00 0.00 0.00 87 1015.7
20200814040009 75 141 3.0 8.0 0.00 0.00 0.00 87 1015.7
20200814035509 75 143 3.0 7.0 0.00 0.00 0.00 86 1015.7
20200814035009 75 140 3.0 8.0 0.00 0.00 0.00 86 1015.7
20200814034511 75 136 3.0 8.0 0.00 0.00 0.00 86 1015.5
20200814034009 75 137 3.0 7.0 0.00 0.00 0.00 86 1015.4
20200814033511 76 137 3.0 7.0 0.00 0.00 0.00 86 1015.4
20200814033010 76 135 3.0 7.0 0.00 0.00 0.00 86 1015.4
20200814032510 76 134 3.0 6.0 0.00 0.00 0.00 85 1015.6
20200814032009 76 135 3.0 5.0 0.00 0.00 0.00 85 1015.7
20200814031512 76 135 2.0 6.0 0.00 0.00 0.00 85 1015.8
20200814031010 76 133 2.0 6.0 0.00 0.00 0.00 85 1015.9
20200814030509 77 137 2.0 5.0 0.00 0.00 0.00 84 1016.0
20200814030010 77 137 2.0 5.0 0.00 0.00 0.00 84 1016.0
20200814025510 77 141 2.0 5.0 0.00 0.00 0.00 84 1016.0
20200814025009 77 147 2.0 5.0 0.00 0.00 0.00 84 1016.0
20200814024511 77 149 2.0 4.0 0.00 0.00 0.00 83 1016.0
20200814024014 77 156 2.0 6.0 0.00 0.00 0.00 83 1016.0
20200814023509 77 147 2.0 6.0 0.00 0.00 0.00 83 1016.0
20200814023019 77 139 2.0 6.0 0.00 0.00 0.00 83 1016.0
20200814022509 78 146 2.0 5.0 0.00 0.00 0.00 83 1015.9
20200814022009 78 142 2.0 5.0 0.00 0.00 0.00 83 1015.9
20200814021510 78 136 2.0 3.0 0.00 0.00 0.00 83 1016.0
20200814021009 78 133 2.0 4.0 0.00 0.00 0.00 82 1015.9
20200814020514 78 131 2.0 7.0 0.00 0.00 0.00 82 1015.9
20200814020010 78 138 2.0 7.0 0.00 0.00 0.00 81 1015.8
20200814015510 78 141 2.0 6.0 0.00 0.00 0.00 81 1015.6
20200814015010 79 138 2.0 6.0 0.00 0.00 0.00 80 1015.6
20200814014515 79 131 2.0 4.0 0.00 0.00 0.00 80 1015.5
20200814014010 79 136 2.0 4.0 0.00 0.00 0.00 79 1015.5
20200814013509 79 141 2.0 4.0 0.00 0.00 0.00 79 1015.4
20200814013009 80 139 2.0 6.0 0.00 0.00 0.00 78 1015.3
20200814012510 80 141 3.0 6.0 0.00 0.00 0.00 78 1015.3
20200814012009 80 141 3.0 6.0 0.00 0.00 0.00 78 1015.2
20200814011517 80 138 3.0 7.0 0.00 0.00 0.00 77 1015.1
20200814011010 80 137 2.0 7.0 0.00 0.00 0.00 77 1015.0
20200814010509 81 139 2.0 5.0 0.00 0.00 0.00 76 1014.9
20200814010009 81 139 2.0 5.0 0.00 0.00 0.00 75 1015.0
20200814005509 81 135 2.0 4.0 0.00 0.00 0.00 75 1015.0
20200814005009 82 137 2.0 4.0 0.00 0.00 0.00 74 1015.0
20200814004513 82 144 2.0 4.0 0.00 0.00 0.00 74 1015.0
20200814004010 82 146 2.0 5.0 0.00 0.00 0.00 73 1015.0
20200814003509 83 146 2.0 5.0 0.00 0.00 0.00 73 1015.0
20200813231009 85 155 3.0 8.0 0.00 0.00 0.00 67 1014.7
20200813230509 84 149 4.0 14.0 0.00 0.00 0.00 69 1014.7
20200813230017 84 150 4.0 14.0 0.00 0.01 0.00 69 1014.7
20200813225510 84 159 3.0 10.0 0.00 0.02 0.00 71 1014.6
20200813225009 84 158 3.0 8.0 0.00 0.02 0.00 70 1014.6
20200813224509 85 151 3.0 7.0 0.00 0.02 0.00 70 1014.6
20200813224009 85 143 4.0 10.0 0.00 0.07 0.00 70 1014.7
20200813223511 85 145 4.0 10.0 0.00 0.15 0.00 70 1014.7
20200813223009 85 150 4.0 9.0 0.00 0.15 0.00 70 1014.8
20200813222509 85 147 4.0 10.0 0.00 0.15 0.00 70 1014.8
20200813222009 85 147 4.0 10.0 0.00 0.16 0.00 70 1014.8
20200813221509 85 152 3.0 9.0 0.00 0.24 0.00 70 1014.8
20200813221009 85 149 4.0 9.0 0.00 0.24 0.00 69 1014.8
20200813220509 86 142 5.0 11.0 0.00 0.24 0.00 69 1014.8
20200813220012 86 137 4.0 11.0 0.00 0.25 0.00 70 1014.8
20200813215509 85 144 4.0 9.0 0.00 0.25 0.00 69 1014.9
20200813215009 86 158 3.0 9.0 0.00 0.27 0.00 68 1014.8
20200813214511 86 160 3.0 7.0 0.00 0.31 0.00 67 1014.8
20200813214010 86 156 4.0 10.0 0.00 0.35 0.00 67 1015.0
20200813213509 86 157 3.0 10.0 0.00 0.40 0.00 66 1015.0
20200813213010 86 165 2.0 8.0 0.00 0.46 0.00 68 1015.1
20200813212512 86 163 3.0 8.0 0.00 0.56 0.00 68 1015.1
20200813212009 85 159 3.0 7.0 0.00 0.59 0.00 69 1015.1
20200813211509 85 156 3.0 11.0 0.00 0.59 0.00 68 1015.3
20200813211010 86 157 3.0 11.0 0.00 0.59 0.00 68 1015.3
20200813210509 86 168 3.0 5.0 0.00 0.59 0.00 68 1015.3
20200813210011 86 162 3.0 11.0 0.00 0.59 0.00 68 1015.3
20200813205509 86 156 3.0 11.0 0.00 0.59 0.00 67 1015.4
20200813205009 86 148 3.0 9.0 0.00 0.59 0.00 69 1015.4
20200813204508 86 143 3.0 10.0 0.00 0.59 0.00 71 1015.4
20200813204011 86 151 3.0 10.0 0.00 0.59 0.00 70 1015.5
20200813203509 85 151 4.0 9.0 0.00 0.59 0.00 71 1015.6
20200813203018 85 150 4.0 9.0 0.00 0.59 0.00 70 1015.6
20200813202509 85 156 3.0 8.0 0.00 0.59 0.00 71 1015.7
20200813202012 85 158 3.0 8.0 0.00 0.59 0.00 69 1015.8
20200813201511 85 183 3.0 10.0 0.00 0.59 0.00 72 1015.7
20200813201010 85 184 3.0 10.0 0.00 0.59 0.00 73 1015.6
20200813200510 84 158 2.0 7.0 0.00 0.60 0.00 72 1015.7
20200813200014 84 143 3.0 10.0 0.00 0.63 0.00 74 1015.7
20200813195508 84 147 4.0 10.0 0.00 0.63 0.00 74 1015.8
20200813195009 84 140 4.0 10.0 0.00 0.63 0.00 74 1015.7
20200813194510 84 134 4.0 10.0 0.00 0.63 0.00 73 1015.9
20200813194010 84 135 4.0 8.0 0.00 0.63 0.00 72 1016.0
20200813193510 84 139 2.0 8.0 0.00 0.63 0.00 73 1016.1
20200813193012 83 160 2.0 7.0 0.00 0.63 0.00 75 1016.1
20200813192510 83 142 3.0 8.0 0.00 0.63 0.00 77 1016.1
20200813192009 83 129 4.0 8.0 0.00 0.63 0.00 74 1016.2
20200813191517 83 129 3.0 7.0 0.00 0.63 0.00 74 1016.1
20200813191013 83 141 3.0 6.0 0.00 0.63 0.00 75 1016.2
20200813190511 83 140 3.0 7.0 0.00 0.63 0.00 76 1016.2
20200813190016 83 131 4.0 8.0 0.00 0.63 0.00 76 1016.2
20200813185509 82 132 4.0 9.0 0.00 0.63 0.00 77 1016.2
20200813185009 82 128 4.0 9.0 0.00 0.63 0.00 75 1016.2
20200813184515 82 131 3.0 8.0 0.00 0.63 0.00 76 1016.2
20200813184008 82 143 3.0 8.0 0.00 0.63 0.00 79 1016.4
20200813183514 82 148 4.0 10.0 0.00 0.63 0.00 77 1016.5
20200813183011 81 160 3.0 10.0 0.00 0.63 0.00 78 1016.5
20200813182508 81 148 3.0 9.0 0.00 0.63 0.00 80 1016.5
20200813182010 80 145 3.0 9.0 0.00 0.63 0.00 79 1016.5
20200813181509 80 151 3.0 9.0 0.00 0.63 0.00 79 1016.5
20200813181009 80 151 4.0 9.0 0.00 0.63 0.00 79 1016.5
20200813180513 80 157 2.0 6.0 0.00 0.63 0.00 79 1016.6
20200813180011 80 156 2.0 8.0 0.00 0.63 0.00 81 1016.6
20200813175512 80 157 3.0 8.0 0.00 0.63 0.00 80 1016.6
20200813175009 80 154 2.0 8.0 0.00 0.63 0.00 80 1016.7
20200813174509 79 171 3.0 7.0 0.00 0.63 0.00 82 1016.8
20200813174009 79 172 3.0 8.0 0.00 0.64 0.00 81 1016.7
20200813173509 79 151 3.0 8.0 0.00 0.64 0.00 82 1016.8
20200813173010 78 149 4.0 8.0 0.00 0.64 0.00 82 1016.8
20200813172509 78 143 3.0 8.0 0.00 0.64 0.00 83 1016.8
20200813172009 78 144 3.0 8.0 0.00 0.65 0.00 83 1016.8
20200813171512 77 143 2.0 7.0 0.00 0.66 0.00 84 1016.9
20200813171011 77 141 3.0 7.0 0.00 0.66 0.00 84 1017.0
20200813170509 76 142 4.0 8.0 0.00 0.67 0.00 84 1017.0
20200813170017 76 137 4.0 10.0 0.00 0.68 0.00 84 1017.0
20200813165509 76 139 4.0 10.0 0.00 0.69 0.00 85 1017.1
20200813165008 76 139 3.0 8.0 0.00 0.69 0.00 85 1017.1
20200813164518 76 139 3.0 8.0 0.00 0.70 0.00 85 1017.1
20200813164017 75 147 3.0 9.0 0.00 0.71 0.00 86 1017.1
20200813163510 75 150 3.0 9.0 0.00 0.71 0.00 86 1017.1
20200813163017 75 154 3.0 8.0 0.00 0.72 0.00 86 1017.1
20200813162509 74 144 3.0 8.0 0.00 0.73 0.00 86 1017.1
20200813162009 74 141 3.0 8.0 0.00 0.74 0.00 86 1017.1
20200813161511 74 143 3.0 7.0 0.00 0.75 0.00 87 1017.1
20200813161009 74 140 4.0 9.0 0.00 0.76 0.00 86 1017.0
20200813160509 74 141 4.0 9.0 0.00 0.77 0.00 86 1017.1
20200813160022 74 132 4.0 10.0 0.00 0.78 0.00 86 1017.0
20200813155510 73 133 4.0 10.0 0.00 0.78 0.00 86 1017.1
20200813155009 73 142 3.0 8.0 0.00 0.79 0.00 86 1017.2
20200813154512 73 139 3.0 8.0 0.00 0.79 0.00 86 1017.2
20200813154009 73 144 3.0 8.0 0.00 0.79 0.00 86 1017.2
20200813153508 73 151 2.0 5.0 0.00 0.80 0.00 86 1017.2
20200813153026 73 149 3.0 5.0 0.00 0.80 0.00 86 1017.2
20200813152508 73 139 3.0 8.0 0.00 0.80 0.00 86 1017.0
20200813152009 73 134 4.0 9.0 0.00 0.80 0.00 87 1017.0
20200813151514 72 135 4.0 9.0 0.00 0.80 0.00 87 1016.9
20200813151009 72 137 4.0 9.0 0.00 0.80 0.00 87 1016.9
20200813150519 72 146 4.0 9.0 0.00 0.80 0.00 86 1017.0
20200813150022 72 151 4.0 9.0 0.00 0.80 0.00 86 1017.0
20200813145508 72 141 4.0 9.0 0.00 0.80 0.00 86 1017.0
20200813145011 72 145 3.0 9.0 0.00 0.80 0.00 86 1017.0
20200813144511 72 145 3.0 10.0 0.00 0.80 0.00 86 1017.0
20200813144009 72 143 3.0 10.0 0.00 0.80 0.00 87 1017.0
20200813143509 72 146 4.0 9.0 0.00 0.80 0.00 87 1017.0
20200813143010 71 139 4.0 9.0 0.00 0.80 0.00 86 1017.0
20200813142509 71 142 4.0 8.0 0.00 0.80 0.00 87 1017.0
20200813142009 71 145 4.0 9.0 0.00 0.80 0.00 88 1017.1
20200813141509 71 136 5.0 10.0 0.00 0.80 0.00 88 1017.1
20200813141009 70 128 7.0 11.0 0.00 0.80 0.00 87 1017.1
20200813140509 70 129 5.0 11.0 0.00 0.80 0.00 88 1017.1
20200813140012 70 132 5.0 10.0 0.00 0.80 0.00 89 1017.1
20200813135509 69 127 5.0 10.0 0.00 0.80 0.00 89 1017.1
20200813135008 69 132 5.0 10.0 0.00 0.80 0.00 90 1017.1
20200813134509 68 140 4.0 9.0 0.00 0.80 0.00 91 1017.2
20200813134009 68 135 4.0 8.0 0.00 0.80 0.00 91 1017.2
20200813133511 67 133 4.0 8.0 0.00 0.80 0.00 91 1017.2
20200813133017 67 133 5.0 9.0 0.00 0.80 0.00 91 1017.3
20200813132509 67 129 5.0 12.0 0.00 0.80 0.00 92 1017.3
20200813132009 67 128 5.0 12.0 0.00 0.80 0.00 92 1017.3
20200813131509 67 125 4.0 10.0 0.00 0.80 0.00 93 1017.4
20200813131009 66 122 4.0 9.0 0.00 0.80 0.00 93 1017.3
20200813130510 66 122 4.0 8.0 0.00 0.80 0.00 93 1017.3
20200813130012 66 124 4.0 8.0 0.00 0.80 0.00 94 1017.3
20200813125508 66 124 4.0 9.0 0.00 0.80 0.00 94 1017.3
20200813125008 65 122 4.0 9.0 0.00 0.80 0.00 94 1017.2
20200813124508 65 127 3.0 7.0 0.00 0.80 0.00 94 1017.2
20200813124008 65 133 2.0 6.0 0.00 0.80 0.00 94 1017.1
20200813123508 65 136 2.0 4.0 0.00 0.80 0.00 94 1016.9
20200813123012 64 133 2.0 5.0 0.00 0.80 0.00 94 1017.0
20200813122508 64 123 2.0 5.0 0.00 0.80 0.00 94 1016.9
20200813122010 64 118 2.0 5.0 0.00 0.80 0.00 94 1016.9
20200813121510 64 123 2.0 4.0 0.00 0.80 0.00 94 1016.9
20200813121009 64 122 2.0 5.0 0.00 0.80 0.00 94 1016.9
20200813120509 64 110 1.0 5.0 0.00 0.80 0.00 94 1016.9
20200813120011 64 100 1.0 4.0 0.00 0.80 0.00 94 1016.9
20200813115508 64 112 2.0 4.0 0.00 0.80 0.00 94 1016.8
20200813115009 64 118 2.0 4.0 0.00 0.80 0.00 94 1016.6
20200813114510 64 117 1.0 4.0 0.00 0.80 0.00 93 1016.6
20200813114008 64 117 1.0 3.0 0.00 0.80 0.00 93 1016.7
20200813113509 64 113 1.0 3.0 0.00 0.80 0.00 93 1016.7
20200813113019 64 102 1.0 3.0 0.00 0.80 0.00 93 1016.6
20200813112508 64 92 1.0 3.0 0.00 0.80 0.00 93 1016.6
20200813112008 64 102 1.0 5.0 0.00 0.80 0.00 93 1016.5
20200813111509 64 117 1.0 5.0 0.00 0.80 0.00 93 1016.4
20200813111008 64 130 1.0 4.0 0.00 0.80 0.00 93 1016.4
20200813110510 64 129 2.0 4.0 0.00 0.80 0.00 93 1016.3
20200813110009 64 123 2.0 4.0 0.00 0.80 0.00 93 1016.2
20200813105509 64 117 1.0 4.0 0.00 0.80 0.00 93 1016.3
20200813105008 64 116 1.0 3.0 0.00 0.80 0.00 93 1016.4
20200813104512 64 122 2.0 5.0 0.00 0.80 0.00 93 1016.6
20200813104008 64 121 2.0 5.0 0.00 0.80 0.00 93 1016.6
20200813103508 64 110 2.0 5.0 0.00 0.80 0.00 93 1016.8
20200813103009 64 110 2.0 5.0 0.00 0.80 0.00 93 1016.9
20200813102509 64 106 2.0 5.0 0.00 0.80 0.00 93 1016.9
20200813102009 64 95 2.0 5.0 0.00 0.80 0.00 93 1017.0
20200813101509 64 100 2.0 6.0 0.00 0.80 0.00 93 1017.1